GIA478 WADD-WAAA

Flight info

Callsign GIA478
Flight time 0h 53m
Altitude 33000
Route PEDET W41 LIPOT
Aircraft B77W/H-SDE1E2E3FGHIJ2J3J4J5M1RWXY/LB1D1

Departure

Time 2026-04-22 00:21
Airport Denpasar I Gusti Ngurah Rai International Airport (WADD)

Arrival

Time 2026-04-22 01:15
Airport Sultan Hasanuddin International Airport (WAAA)
Time Latitude Longitude Altitude Speed Heading
2026-04-22 00:20 -8.74892 115.15445 26 ft 0 kts 88°
2026-04-22 00:20 -8.74891 115.15478 26 ft 12 kts 88°
2026-04-22 00:20 -8.74878 115.15768 22 ft 81 kts 88°
2026-04-22 00:21 -8.74845 115.16634 28 ft 160 kts 87°
2026-04-22 00:21 -8.74804 115.17846 599 ft 180 kts 87°
2026-04-22 00:21 -8.74761 115.19068 1668 ft 179 kts 85°
2026-04-22 00:21 -8.74698 115.20331 2381 ft 188 kts 86°
2026-04-22 00:22 -8.74637 115.21714 2985 ft 205 kts 85°
2026-04-22 00:22 -8.74573 115.23199 3662 ft 221 kts 85°
2026-04-22 00:22 -8.74507 115.24788 4374 ft 235 kts 85°
2026-04-22 00:22 -8.74438 115.26475 5089 ft 250 kts 85°
2026-04-22 00:23 -8.74363 115.28283 5888 ft 262 kts 85°
2026-04-22 00:23 -8.74290 115.30100 6897 ft 264 kts 85°
2026-04-22 00:23 -8.74215 115.31953 7768 ft 270 kts 85°
2026-04-22 00:23 -8.74138 115.33844 8717 ft 273 kts 85°
2026-04-22 00:24 -8.74059 115.35763 9582 ft 278 kts 85°
2026-04-22 00:24 -8.73978 115.37730 10416 ft 286 kts 85°
2026-04-22 00:24 -8.73894 115.39758 11018 ft 301 kts 85°
2026-04-22 00:24 -8.73774 115.41945 11634 ft 317 kts 80°
2026-04-22 00:25 -8.73061 115.44063 12249 ft 330 kts 59°
2026-04-22 00:25 -8.71583 115.45888 12881 ft 346 kts 46°
2026-04-22 00:25 -8.69838 115.47628 13520 ft 360 kts 45°
2026-04-22 00:25 -8.68016 115.49416 14232 ft 372 kts 44°
2026-04-22 00:26 -8.66145 115.51251 15101 ft 380 kts 44°
2026-04-22 00:26 -8.64225 115.53133 16040 ft 384 kts 44°
2026-04-22 00:26 -8.62316 115.55005 16928 ft 390 kts 44°
2026-04-22 00:26 -8.60365 115.56918 17777 ft 395 kts 44°
2026-04-22 00:27 -8.58379 115.58865 18544 ft 402 kts 44°
2026-04-22 00:27 -8.56341 115.60864 19284 ft 409 kts 44°
2026-04-22 00:27 -8.54293 115.62873 20018 ft 416 kts 44°
2026-04-22 00:27 -8.52208 115.64917 20733 ft 422 kts 44°
2026-04-22 00:28 -8.50091 115.66993 21416 ft 428 kts 44°
2026-04-22 00:28 -8.47955 115.69088 22101 ft 434 kts 44°
2026-04-22 00:28 -8.45770 115.71231 22776 ft 440 kts 44°
2026-04-22 00:28 -8.43549 115.73408 23531 ft 444 kts 44°
2026-04-22 00:29 -8.41347 115.75568 24279 ft 448 kts 44°
2026-04-22 00:29 -8.39114 115.77759 24960 ft 453 kts 44°
2026-04-22 00:29 -8.36826 115.80003 25656 ft 458 kts 44°
2026-04-22 00:29 -8.34527 115.82257 26388 ft 462 kts 44°
2026-04-22 00:30 -8.32234 115.84506 27092 ft 466 kts 44°
2026-04-22 00:30 -8.29883 115.86811 27764 ft 471 kts 44°
2026-04-22 00:30 -8.27511 115.89137 28419 ft 476 kts 44°
2026-04-22 00:30 -8.25155 115.91447 29065 ft 481 kts 44°
2026-04-22 00:31 -8.22745 115.93810 29816 ft 483 kts 44°
2026-04-22 00:31 -8.20327 115.96182 30697 ft 482 kts 44°
2026-04-22 00:31 -8.17944 115.98519 31554 ft 480 kts 45°
2026-04-22 00:31 -8.15574 116.00844 32319 ft 479 kts 44°
2026-04-22 00:32 -8.13180 116.03192 32828 ft 483 kts 45°
2026-04-22 00:32 -8.08350 116.07930 32868 ft 477 kts 45°
2026-04-22 00:33 -8.03598 116.12593 32869 ft 477 kts 45°
2026-04-22 00:33 -7.98866 116.17236 32868 ft 476 kts 45°
2026-04-22 00:34 -7.94111 116.21902 32869 ft 476 kts 45°
2026-04-22 00:34 -7.89378 116.26546 32867 ft 475 kts 45°
2026-04-22 00:35 -7.84635 116.31202 32866 ft 476 kts 45°
2026-04-22 00:35 -7.79896 116.35853 32866 ft 475 kts 45°
2026-04-22 00:36 -7.75132 116.40531 32866 ft 474 kts 45°
2026-04-22 00:36 -7.70414 116.45166 32858 ft 476 kts 45°
2026-04-22 00:37 -7.65680 116.49819 32850 ft 473 kts 45°
2026-04-22 00:37 -7.60973 116.54450 32848 ft 474 kts 45°
2026-04-22 00:38 -7.56281 116.59072 32846 ft 473 kts 45°
2026-04-22 00:38 -7.51569 116.63740 32837 ft 472 kts 47°
2026-04-22 00:39 -7.47288 116.68711 32847 ft 472 kts 50°
2026-04-22 00:39 -7.43047 116.73775 32849 ft 471 kts 50°
2026-04-22 00:40 -7.38822 116.78817 32852 ft 470 kts 50°
2026-04-22 00:40 -7.34610 116.83840 32849 ft 470 kts 50°
2026-04-22 00:41 -7.30378 116.88886 32849 ft 471 kts 50°
2026-04-22 00:41 -7.26155 116.93918 32850 ft 469 kts 50°
2026-04-22 00:42 -7.21952 116.98925 32854 ft 469 kts 50°
2026-04-22 00:42 -7.17737 117.03946 32859 ft 468 kts 50°
2026-04-22 00:43 -7.13528 117.08957 32867 ft 469 kts 50°
2026-04-22 00:43 -7.09328 117.13956 32867 ft 468 kts 50°
2026-04-22 00:44 -7.05148 117.18929 32866 ft 465 kts 49°
2026-04-22 00:44 -7.00944 117.23930 32866 ft 466 kts 50°
2026-04-22 00:45 -6.96769 117.28894 32867 ft 467 kts 50°
2026-04-22 00:45 -6.92575 117.33881 32866 ft 466 kts 50°
2026-04-22 00:46 -6.88370 117.38878 32867 ft 466 kts 50°
2026-04-22 00:46 -6.84196 117.43836 32867 ft 466 kts 50°
2026-04-22 00:47 -6.80011 117.48807 32867 ft 466 kts 50°
2026-04-22 00:47 -6.75824 117.53779 32866 ft 464 kts 50°
2026-04-22 00:48 -6.71637 117.58748 32867 ft 467 kts 50°
2026-04-22 00:48 -6.67364 117.63611 32874 ft 464 kts 44°
2026-04-22 00:49 -6.62591 117.68059 32868 ft 467 kts 43°
2026-04-22 00:49 -6.57826 117.72462 32868 ft 465 kts 43°
2026-04-22 00:50 -6.53039 117.76886 32867 ft 465 kts 42°
2026-04-22 00:50 -6.48282 117.81282 32868 ft 466 kts 42°
2026-04-22 00:51 -6.43528 117.85675 32868 ft 465 kts 43°
2026-04-22 00:51 -6.38758 117.90082 32867 ft 466 kts 42°
2026-04-22 00:52 -6.33973 117.94501 32864 ft 465 kts 42°
2026-04-22 00:52 -6.29224 117.98886 32861 ft 464 kts 42°
2026-04-22 00:53 -6.24477 118.03268 32853 ft 463 kts 42°
2026-04-22 00:53 -6.19744 118.07636 32850 ft 464 kts 42°
2026-04-22 00:54 -6.15002 118.12012 32844 ft 463 kts 42°
2026-04-22 00:54 -6.10250 118.16396 32852 ft 464 kts 42°
2026-04-22 00:55 -6.05478 118.20795 32580 ft 458 kts 42°
2026-04-22 00:55 -6.03134 118.22957 31746 ft 459 kts 42°
2026-04-22 00:55 -5.98416 118.27306 30179 ft 457 kts 43°
2026-04-22 00:56 -5.96094 118.29446 29762 ft 449 kts 43°
2026-04-22 00:56 -5.93811 118.31550 29289 ft 442 kts 43°
2026-04-22 00:56 -5.91570 118.33616 28779 ft 436 kts 43°
2026-04-22 00:56 -5.89353 118.35659 28279 ft 431 kts 43°
2026-04-22 00:57 -5.87159 118.37681 27776 ft 426 kts 43°
2026-04-22 00:57 -5.84959 118.39709 27276 ft 434 kts 43°
2026-04-22 00:57 -5.82714 118.41775 26728 ft 438 kts 42°
2026-04-22 00:57 -5.80500 118.43814 26206 ft 436 kts 43°
2026-04-22 00:58 -5.78273 118.45868 25670 ft 434 kts 43°
2026-04-22 00:58 -5.76056 118.47916 25104 ft 433 kts 43°
2026-04-22 00:58 -5.73840 118.49964 24552 ft 432 kts 42°
2026-04-22 00:58 -5.71624 118.52012 24005 ft 431 kts 42°
2026-04-22 00:59 -5.69406 118.54060 23450 ft 429 kts 42°
2026-04-22 00:59 -5.67220 118.56081 22904 ft 428 kts 42°
2026-04-22 00:59 -5.65057 118.58080 22362 ft 426 kts 42°
2026-04-22 00:59 -5.62868 118.60102 21813 ft 425 kts 42°
2026-04-22 01:00 -5.60694 118.62109 21263 ft 423 kts 42°
2026-04-22 01:00 -5.58526 118.64111 20704 ft 422 kts 42°
2026-04-22 01:00 -5.56397 118.66078 20147 ft 421 kts 42°
2026-04-22 01:00 -5.54224 118.68086 19579 ft 419 kts 43°
2026-04-22 01:01 -5.52114 118.70041 19014 ft 418 kts 43°
2026-04-22 01:01 -5.49980 118.72016 18440 ft 417 kts 43°
2026-04-22 01:01 -5.47828 118.74007 17867 ft 415 kts 43°
2026-04-22 01:01 -5.45714 118.75960 17296 ft 413 kts 43°
2026-04-22 01:02 -5.43625 118.77889 16732 ft 409 kts 43°
2026-04-22 01:02 -5.41524 118.79826 16164 ft 405 kts 43°
2026-04-22 01:02 -5.39466 118.81723 15594 ft 400 kts 43°
2026-04-22 01:02 -5.37431 118.83600 15033 ft 396 kts 43°
2026-04-22 01:03 -5.35414 118.85459 14477 ft 391 kts 43°
2026-04-22 01:03 -5.33449 118.87305 13923 ft 387 kts 47°
2026-04-22 01:03 -5.31775 118.89408 13364 ft 382 kts 57°
2026-04-22 01:03 -5.30577 118.91753 12831 ft 377 kts 69°
2026-04-22 01:04 -5.29888 118.94233 12384 ft 371 kts 79°
2026-04-22 01:04 -5.29663 118.96774 11954 ft 364 kts 87°
2026-04-22 01:04 -5.29579 118.99316 11562 ft 357 kts 87°
2026-04-22 01:04 -5.29521 119.01771 11176 ft 351 kts 88°
2026-04-22 01:05 -5.29481 119.04195 10768 ft 345 kts 88°
2026-04-22 01:05 -5.29456 119.06574 10375 ft 340 kts 89°
2026-04-22 01:05 -5.29438 119.08917 9978 ft 335 kts 89°
2026-04-22 01:05 -5.29425 119.11248 9567 ft 332 kts 89°
2026-04-22 01:06 -5.29415 119.13538 9154 ft 328 kts 89°
2026-04-22 01:06 -5.29406 119.15825 8740 ft 325 kts 89°
2026-04-22 01:06 -5.29397 119.18050 8478 ft 316 kts 89°
2026-04-22 01:06 -5.29389 119.20205 8376 ft 302 kts 89°
2026-04-22 01:07 -5.29381 119.22266 8294 ft 286 kts 89°
2026-04-22 01:07 -5.29373 119.24200 8243 ft 270 kts 89°
2026-04-22 01:07 -5.29366 119.26045 8015 ft 264 kts 89°
2026-04-22 01:07 -5.29357 119.27889 7634 ft 263 kts 88°
2026-04-22 01:08 -5.29350 119.29710 7264 ft 262 kts 89°
2026-04-22 01:08 -5.29342 119.31525 6895 ft 261 kts 89°
2026-04-22 01:08 -5.29334 119.33337 6531 ft 260 kts 89°
2026-04-22 01:08 -5.29327 119.35131 6200 ft 258 kts 89°
2026-04-22 01:09 -5.29319 119.36944 5837 ft 257 kts 89°
2026-04-22 01:09 -5.29312 119.38711 5489 ft 256 kts 89°
2026-04-22 01:09 -5.29303 119.40493 5134 ft 252 kts 87°
2026-04-22 01:09 -5.28934 119.42173 4758 ft 248 kts 63°
2026-04-22 01:10 -5.27853 119.43479 4380 ft 245 kts 39°
2026-04-22 01:10 -5.26445 119.44442 4029 ft 244 kts 33°
2026-04-22 01:10 -5.24976 119.45319 3675 ft 242 kts 31°
2026-04-22 01:10 -5.23533 119.46182 3307 ft 241 kts 33°
2026-04-22 01:11 -5.22128 119.47041 2999 ft 231 kts 32°
2026-04-22 01:11 -5.20786 119.47823 2696 ft 213 kts 31°
2026-04-22 01:11 -5.19538 119.48525 2420 ft 201 kts 31°
2026-04-22 01:11 -5.18356 119.49190 2159 ft 189 kts 31°
2026-04-22 01:12 -5.17245 119.49822 1906 ft 176 kts 31°
2026-04-22 01:12 -5.16233 119.50401 1677 ft 158 kts 32°
2026-04-22 01:12 -5.15308 119.50930 1460 ft 147 kts 32°
2026-04-22 01:12 -5.14427 119.51434 1255 ft 144 kts 32°
2026-04-22 01:13 -5.13561 119.51931 1042 ft 145 kts 31°
2026-04-22 01:13 -5.12668 119.52433 795 ft 147 kts 31°
2026-04-22 01:13 -5.11774 119.52934 567 ft 145 kts 31°
2026-04-22 01:13 -5.10898 119.53436 408 ft 145 kts 32°
2026-04-22 01:14 -5.10017 119.53946 227 ft 146 kts 31°
2026-04-22 01:14 -5.09125 119.54457 61 ft 146 kts 31°
2026-04-22 01:14 -5.08326 119.54917 44 ft 112 kts 30°
2026-04-22 01:14 -5.07766 119.55241 47 ft 71 kts 30°
2026-04-22 01:15 -5.07442 119.55413 42 ft 42 kts 14°
2026-04-22 01:15 -5.07221 119.55422 51 ft 13 kts 357°
2026-04-22 01:15 -5.07186 119.55404 53 ft 3 kts 284°
2026-04-22 01:15 -5.07202 119.55369 52 ft 8 kts 227°
2026-04-22 01:16 -5.07262 119.55330 50 ft 11 kts 210°
2026-04-22 01:16 -5.07337 119.55286 48 ft 13 kts 210°
2026-04-22 01:16 -5.07421 119.55238 47 ft 14 kts 209°
2026-04-22 01:16 -5.07519 119.55183 47 ft 17 kts 209°
2026-04-22 01:17 -5.07606 119.55128 48 ft 8 kts 227°
2026-04-22 01:17 -5.07612 119.55078 49 ft 7 kts 291°
2026-04-22 01:17 -5.07588 119.55035 50 ft 7 kts 300°
2026-04-22 01:17 -5.07571 119.54994 51 ft 5 kts 271°
2026-04-22 01:18 -5.07580 119.54960 52 ft 4 kts 258°